Weather Roundup
Issued by NWS Springfield, MO

Home | Current Version | Previous Version | Text Only | Print | Product List | Glossary On
Versions: 1 2 3 4 5 6 7 8 9 10 11 12 13 14 15 16 17 18 19 20 21 22 23 24 25 26 27 28 29 30 31 32 33 34 35 36 37 38 39 40 41 42 43 44 45 46 47 48 49 50
000
NZUS99 KSGF 021707
HRRSGF

HOURLY WEATHER
NATIONAL WEATHER SERVICE SPRINGFIELD MO
1200 PM CDT THU OCT 02 2014

......SGF CWA......

CITY           SKY/WX    TMP DP  RH WIND       PRES   REMARKS
SPRINGFIELD    LGT RAIN  71  67  87 SE12      29.80F
JOPLIN         CLOUDY    74  70  87 S12       29.77F
WEST PLAINS    CLOUDY    79  69  71 S9        29.88F
ROLLA          CLOUDY    69  64  84 E13       29.81F
OSAGE BEACH    CLOUDY    70  64  83 NE6       29.81S
BRANSON        CLOUDY    82  70  65 S9G16     29.84F

......SURROUNDING SGF CWA......

CITY           SKY/WX    TMP DP  RH WIND       PRES   REMARKS
CHANUTE        CLOUDY    72  67  84 W13G20    29.76R
PARSONS        LGT RAIN  76  72  87 SW8       29.77R
COFFEYVILLE    CLOUDY    77  72  84 S12       29.76R
EMPORIA        PTSUNNY   66  60  81 N14       29.77F
GROVE OK       LGT RAIN  77  77 100 SW9       29.79R
ROGERS AR      LGT RAIN  79  69  71 S23       29.83F
SILOAM SPRINGS CLOUDY    75  68  78 S16G22    29.82F
HARRISON AR    PTSUNNY   83  72  69 S14       29.84F
NEAR YELLVILLE PTSUNNY   82  66  57 SW8       29.83F

......KANSAS AND MISSOURI......

CITY           SKY/WX    TMP DP  RH WIND       PRES   REMARKS
KANSAS CTY INT TSTM      66  65  96 S14       29.77R FOG
DOWNTOWN KC    LGT RAIN  69  66  90 CALM      29.75R
COLUMBIA       CLOUDY    66  64  93 SE15      29.80S
SEDALIA        CLOUDY    69  65  86 SE10      29.78F
ST JOSEPH      CLOUDY    65  64  97 NW7       29.76R
ST LOUIS       TSTM      68  64  88 N8        29.88F FOG
SPIRIT OF STL  LGT RAIN  69  67  93 E8        29.86F FOG
KIRKSVILLE     LGT RAIN  66  65  96 S23       29.76F
WICHITA        PTSUNNY   69  55  60 NW20G26   29.83R
TOPEKA         CLOUDY    66  64  93 NW9       29.77R
OLATHE         TSTM      67  66  97 VRB6      29.76R VSB 3/4

......TENNESSEE......

CITY           SKY/WX    TMP DP  RH WIND       PRES   REMARKS
MEMPHIS        PTSUNNY   85  71  63 SW9G22    29.92F HX  90
NASHVILLE      MOSUNNY   85  64  49 S15       30.02F

......ARKANSAS.......

CITY           SKY/WX    TMP DP  RH WIND       PRES   REMARKS
FAYETTEVILLE   TSTM      68  66  93 S14G36    29.83F VSB 1/2
FT SMITH       PTSUNNY   83  70  64 S12       29.80F
LITTLE ROCK    PTSUNNY   83  70  64 W8G17     29.88F

......OKLAHOMA.......

CITY           SKY/WX    TMP DP  RH WIND       PRES   REMARKS
TULSA          LGT RAIN  75  65  70 S12       29.74R
PONCA CITY     PTSUNNY   70  62  76 N20G28    29.79R
MCALESTER      PTSUNNY   82  72  71 S10       29.81R
OKLAHOMA CITY  MOSUNNY   75  60  59 NW16      29.80S

......IOWA............

CITY           SKY/WX    TMP DP  RH WIND       PRES   REMARKS
DES MOINES     RAIN      66  63  90 CALM      29.75F VSB 3/4
QUAD CITIES    CLOUDY    68  63  84 S8        29.83R

......ILLINOIS........

CITY           SKY/WX    TMP DP  RH WIND       PRES   REMARKS
QUINCY         LGT RAIN  66  63  90 SE13      29.79F
CHICAGO        CLOUDY    72  62  71 SW12      29.84F




USA.gov is the U.S. government's official web portal to all federal, state and local government web resources and services.